Index of /20260501/WXO-DD/model_caps/3km/12/017
Name Last modified Size Description
Parent Directory -
20260501T12Z_MSC_CAPS_AbsoluteVorticity_IsbL-0250_RLatLon0.03_PT017H.grib2 2026-05-01 18:18 1.0M
20260501T12Z_MSC_CAPS_AbsoluteVorticity_IsbL-0500_RLatLon0.03_PT017H.grib2 2026-05-01 18:18 1.1M
20260501T12Z_MSC_CAPS_AbsoluteVorticity_IsbL-0700_RLatLon0.03_PT017H.grib2 2026-05-01 18:18 1.0M
20260501T12Z_MSC_CAPS_AbsoluteVorticity_IsbL-0850_RLatLon0.03_PT017H.grib2 2026-05-01 18:18 1.2M
20260501T12Z_MSC_CAPS_AbsoluteVorticity_IsbL-1000_RLatLon0.03_PT017H.grib2 2026-05-01 18:18 1.3M
20260501T12Z_MSC_CAPS_AirDensity_AGL-120m_RLatLon0.03_PT017H.grib2 2026-05-01 18:18 1.4M
20260501T12Z_MSC_CAPS_AirDensity_AGL-40m_RLatLon0.03_PT017H.grib2 2026-05-01 18:18 1.4M
20260501T12Z_MSC_CAPS_AirDensity_AGL-80m_RLatLon0.03_PT017H.grib2 2026-05-01 18:18 1.4M
20260501T12Z_MSC_CAPS_AirTemp_AGL-120m_RLatLon0.03_PT017H.grib2 2026-05-01 18:18 1.7M
20260501T12Z_MSC_CAPS_AirTemp_AGL-2m_RLatLon0.03_PT017H.grib2 2026-05-01 18:18 2.1M
20260501T12Z_MSC_CAPS_AirTemp_AGL-40m_RLatLon0.03_PT017H.grib2 2026-05-01 18:18 1.8M
20260501T12Z_MSC_CAPS_AirTemp_AGL-80m_RLatLon0.03_PT017H.grib2 2026-05-01 18:18 1.8M
20260501T12Z_MSC_CAPS_AirTemp_IsbL-0050_RLatLon0.03_PT017H.grib2 2026-05-01 18:18 691K
20260501T12Z_MSC_CAPS_AirTemp_IsbL-0100_RLatLon0.03_PT017H.grib2 2026-05-01 18:18 967K
20260501T12Z_MSC_CAPS_AirTemp_IsbL-0150_RLatLon0.03_PT017H.grib2 2026-05-01 18:18 756K
20260501T12Z_MSC_CAPS_AirTemp_IsbL-0175_RLatLon0.03_PT017H.grib2 2026-05-01 18:18 775K
20260501T12Z_MSC_CAPS_AirTemp_IsbL-0200_RLatLon0.03_PT017H.grib2 2026-05-01 18:18 790K
20260501T12Z_MSC_CAPS_AirTemp_IsbL-0225_RLatLon0.03_PT017H.grib2 2026-05-01 18:18 791K
20260501T12Z_MSC_CAPS_AirTemp_IsbL-0250_RLatLon0.03_PT017H.grib2 2026-05-01 18:18 1.0M
20260501T12Z_MSC_CAPS_AirTemp_IsbL-0275_RLatLon0.03_PT017H.grib2 2026-05-01 18:18 1.0M
20260501T12Z_MSC_CAPS_AirTemp_IsbL-0300_RLatLon0.03_PT017H.grib2 2026-05-01 18:18 1.0M
20260501T12Z_MSC_CAPS_AirTemp_IsbL-0350_RLatLon0.03_PT017H.grib2 2026-05-01 18:18 740K
20260501T12Z_MSC_CAPS_AirTemp_IsbL-0400_RLatLon0.03_PT017H.grib2 2026-05-01 18:18 748K
20260501T12Z_MSC_CAPS_AirTemp_IsbL-0450_RLatLon0.03_PT017H.grib2 2026-05-01 18:18 763K
20260501T12Z_MSC_CAPS_AirTemp_IsbL-0500_RLatLon0.03_PT017H.grib2 2026-05-01 18:18 780K
20260501T12Z_MSC_CAPS_AirTemp_IsbL-0550_RLatLon0.03_PT017H.grib2 2026-05-01 18:18 796K
20260501T12Z_MSC_CAPS_AirTemp_IsbL-0600_RLatLon0.03_PT017H.grib2 2026-05-01 18:18 965K
20260501T12Z_MSC_CAPS_AirTemp_IsbL-0650_RLatLon0.03_PT017H.grib2 2026-05-01 18:18 1.0M
20260501T12Z_MSC_CAPS_AirTemp_IsbL-0700_RLatLon0.03_PT017H.grib2 2026-05-01 18:18 1.0M
20260501T12Z_MSC_CAPS_AirTemp_IsbL-0750_RLatLon0.03_PT017H.grib2 2026-05-01 18:18 1.0M
20260501T12Z_MSC_CAPS_AirTemp_IsbL-0800_RLatLon0.03_PT017H.grib2 2026-05-01 18:18 1.0M
20260501T12Z_MSC_CAPS_AirTemp_IsbL-0850_RLatLon0.03_PT017H.grib2 2026-05-01 18:18 1.1M
20260501T12Z_MSC_CAPS_AirTemp_IsbL-0875_RLatLon0.03_PT017H.grib2 2026-05-01 18:18 1.1M
20260501T12Z_MSC_CAPS_AirTemp_IsbL-0900_RLatLon0.03_PT017H.grib2 2026-05-01 18:18 1.1M
20260501T12Z_MSC_CAPS_AirTemp_IsbL-0925_RLatLon0.03_PT017H.grib2 2026-05-01 18:18 1.1M
20260501T12Z_MSC_CAPS_AirTemp_IsbL-0950_RLatLon0.03_PT017H.grib2 2026-05-01 18:18 1.1M
20260501T12Z_MSC_CAPS_AirTemp_IsbL-0970_RLatLon0.03_PT017H.grib2 2026-05-01 18:18 1.1M
20260501T12Z_MSC_CAPS_AirTemp_IsbL-0985_RLatLon0.03_PT017H.grib2 2026-05-01 18:18 1.0M
20260501T12Z_MSC_CAPS_AirTemp_IsbL-1000_RLatLon0.03_PT017H.grib2 2026-05-01 18:18 1.1M
20260501T12Z_MSC_CAPS_AirTemp_IsbL-1015_RLatLon0.03_PT017H.grib2 2026-05-01 18:18 1.2M
20260501T12Z_MSC_CAPS_Albedo_Sfc_RLatLon0.03_PT017H.grib2 2026-05-01 18:18 2.7M
20260501T12Z_MSC_CAPS_CAPE_Sfc_RLatLon0.03_PT017H.grib2 2026-05-01 18:18 26K
20260501T12Z_MSC_CAPS_CloudWater_EAtm_RLatLon0.03_PT017H.grib2 2026-05-01 18:18 1.4M
20260501T12Z_MSC_CAPS_ConvectivePrecip-Accum_Sfc_RLatLon0.03_PT017H.grib2 2026-05-01 18:18 3.3M
20260501T12Z_MSC_CAPS_DewPointDepression_AGL-120m_RLatLon0.03_PT017H.grib2 2026-05-01 18:18 2.0M
20260501T12Z_MSC_CAPS_DewPointDepression_AGL-2m_RLatLon0.03_PT017H.grib2 2026-05-01 18:18 2.1M
20260501T12Z_MSC_CAPS_DewPointDepression_AGL-40m_RLatLon0.03_PT017H.grib2 2026-05-01 18:18 2.0M
20260501T12Z_MSC_CAPS_DewPointDepression_AGL-80m_RLatLon0.03_PT017H.grib2 2026-05-01 18:18 2.0M
20260501T12Z_MSC_CAPS_DewPointDepression_IsbL-0050_RLatLon0.03_PT017H.grib2 2026-05-01 18:18 9.9K
20260501T12Z_MSC_CAPS_DewPointDepression_IsbL-0100_RLatLon0.03_PT017H.grib2 2026-05-01 18:18 119K
20260501T12Z_MSC_CAPS_DewPointDepression_IsbL-0150_RLatLon0.03_PT017H.grib2 2026-05-01 18:18 123K
20260501T12Z_MSC_CAPS_DewPointDepression_IsbL-0175_RLatLon0.03_PT017H.grib2 2026-05-01 18:18 259K
20260501T12Z_MSC_CAPS_DewPointDepression_IsbL-0200_RLatLon0.03_PT017H.grib2 2026-05-01 18:18 428K
20260501T12Z_MSC_CAPS_DewPointDepression_IsbL-0225_RLatLon0.03_PT017H.grib2 2026-05-01 18:18 649K
20260501T12Z_MSC_CAPS_DewPointDepression_IsbL-0250_RLatLon0.03_PT017H.grib2 2026-05-01 18:18 856K
20260501T12Z_MSC_CAPS_DewPointDepression_IsbL-0275_RLatLon0.03_PT017H.grib2 2026-05-01 18:18 1.0M
20260501T12Z_MSC_CAPS_DewPointDepression_IsbL-0300_RLatLon0.03_PT017H.grib2 2026-05-01 18:18 1.0M
20260501T12Z_MSC_CAPS_DewPointDepression_IsbL-0350_RLatLon0.03_PT017H.grib2 2026-05-01 18:18 1.1M
20260501T12Z_MSC_CAPS_DewPointDepression_IsbL-0400_RLatLon0.03_PT017H.grib2 2026-05-01 18:18 1.1M
20260501T12Z_MSC_CAPS_DewPointDepression_IsbL-0450_RLatLon0.03_PT017H.grib2 2026-05-01 18:18 1.1M
20260501T12Z_MSC_CAPS_DewPointDepression_IsbL-0500_RLatLon0.03_PT017H.grib2 2026-05-01 18:18 1.1M
20260501T12Z_MSC_CAPS_DewPointDepression_IsbL-0550_RLatLon0.03_PT017H.grib2 2026-05-01 18:18 1.2M
20260501T12Z_MSC_CAPS_DewPointDepression_IsbL-0600_RLatLon0.03_PT017H.grib2 2026-05-01 18:18 1.2M
20260501T12Z_MSC_CAPS_DewPointDepression_IsbL-0650_RLatLon0.03_PT017H.grib2 2026-05-01 18:18 1.2M
20260501T12Z_MSC_CAPS_DewPointDepression_IsbL-0700_RLatLon0.03_PT017H.grib2 2026-05-01 18:18 1.2M
20260501T12Z_MSC_CAPS_DewPointDepression_IsbL-0750_RLatLon0.03_PT017H.grib2 2026-05-01 18:18 1.3M
20260501T12Z_MSC_CAPS_DewPointDepression_IsbL-0800_RLatLon0.03_PT017H.grib2 2026-05-01 18:18 1.3M
20260501T12Z_MSC_CAPS_DewPointDepression_IsbL-0850_RLatLon0.03_PT017H.grib2 2026-05-01 18:18 1.3M
20260501T12Z_MSC_CAPS_DewPointDepression_IsbL-0875_RLatLon0.03_PT017H.grib2 2026-05-01 18:18 1.3M
20260501T12Z_MSC_CAPS_DewPointDepression_IsbL-0900_RLatLon0.03_PT017H.grib2 2026-05-01 18:18 1.3M
20260501T12Z_MSC_CAPS_DewPointDepression_IsbL-0925_RLatLon0.03_PT017H.grib2 2026-05-01 18:18 1.3M
20260501T12Z_MSC_CAPS_DewPointDepression_IsbL-0950_RLatLon0.03_PT017H.grib2 2026-05-01 18:18 1.3M
20260501T12Z_MSC_CAPS_DewPointDepression_IsbL-0970_RLatLon0.03_PT017H.grib2 2026-05-01 18:18 1.3M
20260501T12Z_MSC_CAPS_DewPointDepression_IsbL-0985_RLatLon0.03_PT017H.grib2 2026-05-01 18:18 1.3M
20260501T12Z_MSC_CAPS_DewPointDepression_IsbL-1000_RLatLon0.03_PT017H.grib2 2026-05-01 18:18 1.3M
20260501T12Z_MSC_CAPS_DewPointDepression_IsbL-1015_RLatLon0.03_PT017H.grib2 2026-05-01 18:18 1.3M
20260501T12Z_MSC_CAPS_DewPoint_AGL-120m_RLatLon0.03_PT017H.grib2 2026-05-01 18:18 3.6M
20260501T12Z_MSC_CAPS_DewPoint_AGL-2m_RLatLon0.03_PT017H.grib2 2026-05-01 18:18 2.1M
20260501T12Z_MSC_CAPS_DewPoint_AGL-40m_RLatLon0.03_PT017H.grib2 2026-05-01 18:18 3.6M
20260501T12Z_MSC_CAPS_DewPoint_AGL-80m_RLatLon0.03_PT017H.grib2 2026-05-01 18:18 3.6M
20260501T12Z_MSC_CAPS_DownwardLongwaveRadiationFlux-Accum_Sfc_RLatLon0.03_PT017H.grib2 2026-05-01 18:18 2.5M
20260501T12Z_MSC_CAPS_DownwardShortwaveRadiationFlux-Accum_NTAtm_RLatLon0.03_PT017H.grib2 2026-05-01 18:18 466K
20260501T12Z_MSC_CAPS_DownwardShortwaveRadiationFlux-Accum_Sfc_RLatLon0.03_PT017H.grib2 2026-05-01 18:18 2.8M
20260501T12Z_MSC_CAPS_FreezingRain-Accum_Sfc_RLatLon0.03_PT017H.grib2 2026-05-01 18:18 446K
20260501T12Z_MSC_CAPS_GeopotentialHeight_IsbL-0050_RLatLon0.03_PT017H.grib2 2026-05-01 18:18 636K
20260501T12Z_MSC_CAPS_GeopotentialHeight_IsbL-0100_RLatLon0.03_PT017H.grib2 2026-05-01 18:18 756K
20260501T12Z_MSC_CAPS_GeopotentialHeight_IsbL-0150_RLatLon0.03_PT017H.grib2 2026-05-01 18:18 723K
20260501T12Z_MSC_CAPS_GeopotentialHeight_IsbL-0175_RLatLon0.03_PT017H.grib2 2026-05-01 18:18 737K
20260501T12Z_MSC_CAPS_GeopotentialHeight_IsbL-0200_RLatLon0.03_PT017H.grib2 2026-05-01 18:18 748K
20260501T12Z_MSC_CAPS_GeopotentialHeight_IsbL-0225_RLatLon0.03_PT017H.grib2 2026-05-01 18:18 760K
20260501T12Z_MSC_CAPS_GeopotentialHeight_IsbL-0250_RLatLon0.03_PT017H.grib2 2026-05-01 18:18 768K
20260501T12Z_MSC_CAPS_GeopotentialHeight_IsbL-0275_RLatLon0.03_PT017H.grib2 2026-05-01 18:18 774K
20260501T12Z_MSC_CAPS_GeopotentialHeight_IsbL-0300_RLatLon0.03_PT017H.grib2 2026-05-01 18:18 776K
20260501T12Z_MSC_CAPS_GeopotentialHeight_IsbL-0350_RLatLon0.03_PT017H.grib2 2026-05-01 18:18 775K
20260501T12Z_MSC_CAPS_GeopotentialHeight_IsbL-0400_RLatLon0.03_PT017H.grib2 2026-05-01 18:18 772K
20260501T12Z_MSC_CAPS_GeopotentialHeight_IsbL-0450_RLatLon0.03_PT017H.grib2 2026-05-01 18:18 766K
20260501T12Z_MSC_CAPS_GeopotentialHeight_IsbL-0500_RLatLon0.03_PT017H.grib2 2026-05-01 18:18 755K
20260501T12Z_MSC_CAPS_GeopotentialHeight_IsbL-0550_RLatLon0.03_PT017H.grib2 2026-05-01 18:18 748K
20260501T12Z_MSC_CAPS_GeopotentialHeight_IsbL-0600_RLatLon0.03_PT017H.grib2 2026-05-01 18:18 635K
20260501T12Z_MSC_CAPS_GeopotentialHeight_IsbL-0650_RLatLon0.03_PT017H.grib2 2026-05-01 18:18 636K
20260501T12Z_MSC_CAPS_GeopotentialHeight_IsbL-0700_RLatLon0.03_PT017H.grib2 2026-05-01 18:18 635K
20260501T12Z_MSC_CAPS_GeopotentialHeight_IsbL-0750_RLatLon0.03_PT017H.grib2 2026-05-01 18:18 814K
20260501T12Z_MSC_CAPS_GeopotentialHeight_IsbL-0800_RLatLon0.03_PT017H.grib2 2026-05-01 18:18 819K
20260501T12Z_MSC_CAPS_GeopotentialHeight_IsbL-0850_RLatLon0.03_PT017H.grib2 2026-05-01 18:18 825K
20260501T12Z_MSC_CAPS_GeopotentialHeight_IsbL-0875_RLatLon0.03_PT017H.grib2 2026-05-01 18:18 907K
20260501T12Z_MSC_CAPS_GeopotentialHeight_IsbL-0900_RLatLon0.03_PT017H.grib2 2026-05-01 18:18 914K
20260501T12Z_MSC_CAPS_GeopotentialHeight_IsbL-0925_RLatLon0.03_PT017H.grib2 2026-05-01 18:18 922K
20260501T12Z_MSC_CAPS_GeopotentialHeight_IsbL-0950_RLatLon0.03_PT017H.grib2 2026-05-01 18:18 934K
20260501T12Z_MSC_CAPS_GeopotentialHeight_IsbL-0970_RLatLon0.03_PT017H.grib2 2026-05-01 18:18 945K
20260501T12Z_MSC_CAPS_GeopotentialHeight_IsbL-0985_RLatLon0.03_PT017H.grib2 2026-05-01 18:18 954K
20260501T12Z_MSC_CAPS_GeopotentialHeight_IsbL-1000_RLatLon0.03_PT017H.grib2 2026-05-01 18:18 962K
20260501T12Z_MSC_CAPS_GeopotentialHeight_IsbL-1015_RLatLon0.03_PT017H.grib2 2026-05-01 18:18 1.0M
20260501T12Z_MSC_CAPS_GeopotentialHeight_Sfc_RLatLon0.03_PT017H.grib2 2026-05-01 18:18 1.0M
20260501T12Z_MSC_CAPS_IcePellets-Accum_Sfc_RLatLon0.03_PT017H.grib2 2026-05-01 18:18 20K
20260501T12Z_MSC_CAPS_LatentHeatNetFlux_Sfc_RLatLon0.03_PT017H.grib2 2026-05-01 18:18 1.8M
20260501T12Z_MSC_CAPS_LiftedIndex-MU-VT_IsbL-0500_RLatLon0.03_PT017H.grib2 2026-05-01 18:18 3.3M
20260501T12Z_MSC_CAPS_MixedLayerThickness_Sfc_RLatLon0.03_PT017H.nc 2026-05-01 18:14 17M
20260501T12Z_MSC_CAPS_NetLongwaveRadiationFlux-Accum_Sfc_RLatLon0.03_PT017H.grib2 2026-05-01 18:18 2.8M
20260501T12Z_MSC_CAPS_NetShortwaveRadiationFlux-Accum_Sfc_RLatLon0.03_PT017H.grib2 2026-05-01 18:18 2.8M
20260501T12Z_MSC_CAPS_PlanetaryBoundaryLayerHeight_Sfc_RLatLon0.03_PT017H.grib2 2026-05-01 18:18 2.8M
20260501T12Z_MSC_CAPS_Precip-Accum_Sfc_RLatLon0.03_PT017H.grib2 2026-05-01 18:18 3.7M
20260501T12Z_MSC_CAPS_PrecipRate_Sfc_RLatLon0.03_PT017H.grib2 2026-05-01 18:18 603K
20260501T12Z_MSC_CAPS_PrecipType-Instant_Sfc_RLatLon0.03_PT017H.grib2 2026-05-01 18:18 1.8M
20260501T12Z_MSC_CAPS_Pressure_MSL_RLatLon0.03_PT017H.grib2 2026-05-01 18:18 769K
20260501T12Z_MSC_CAPS_Pressure_Sfc_RLatLon0.03_PT017H.grib2 2026-05-01 18:18 1.2M
20260501T12Z_MSC_CAPS_RadiativeTemp_Sfc_RLatLon0.03_PT017H.grib2 2026-05-01 18:18 2.1M
20260501T12Z_MSC_CAPS_Rain-Accum_Sfc_RLatLon0.03_PT017H.grib2 2026-05-01 18:18 1.5M
20260501T12Z_MSC_CAPS_RelativeHumidity_AGL-120m_RLatLon0.03_PT017H.grib2 2026-05-01 18:18 2.7M
20260501T12Z_MSC_CAPS_RelativeHumidity_AGL-2m_RLatLon0.03_PT017H.grib2 2026-05-01 18:18 2.8M
20260501T12Z_MSC_CAPS_RelativeHumidity_AGL-40m_RLatLon0.03_PT017H.grib2 2026-05-01 18:18 2.8M
20260501T12Z_MSC_CAPS_RelativeHumidity_AGL-80m_RLatLon0.03_PT017H.grib2 2026-05-01 18:18 2.7M
20260501T12Z_MSC_CAPS_RelativeHumidity_IsbL-0050_RLatLon0.03_PT017H.grib2 2026-05-01 18:18 727K
20260501T12Z_MSC_CAPS_RelativeHumidity_IsbL-0100_RLatLon0.03_PT017H.grib2 2026-05-01 18:18 871K
20260501T12Z_MSC_CAPS_RelativeHumidity_IsbL-0150_RLatLon0.03_PT017H.grib2 2026-05-01 18:18 591K
20260501T12Z_MSC_CAPS_RelativeHumidity_IsbL-0175_RLatLon0.03_PT017H.grib2 2026-05-01 18:18 491K
20260501T12Z_MSC_CAPS_RelativeHumidity_IsbL-0200_RLatLon0.03_PT017H.grib2 2026-05-01 18:18 691K
20260501T12Z_MSC_CAPS_RelativeHumidity_IsbL-0225_RLatLon0.03_PT017H.grib2 2026-05-01 18:18 947K
20260501T12Z_MSC_CAPS_RelativeHumidity_IsbL-0250_RLatLon0.03_PT017H.grib2 2026-05-01 18:18 1.1M
20260501T12Z_MSC_CAPS_RelativeHumidity_IsbL-0275_RLatLon0.03_PT017H.grib2 2026-05-01 18:18 1.4M
20260501T12Z_MSC_CAPS_RelativeHumidity_IsbL-0300_RLatLon0.03_PT017H.grib2 2026-05-01 18:18 1.7M
20260501T12Z_MSC_CAPS_RelativeHumidity_IsbL-0350_RLatLon0.03_PT017H.grib2 2026-05-01 18:18 1.9M
20260501T12Z_MSC_CAPS_RelativeHumidity_IsbL-0400_RLatLon0.03_PT017H.grib2 2026-05-01 18:18 2.1M
20260501T12Z_MSC_CAPS_RelativeHumidity_IsbL-0450_RLatLon0.03_PT017H.grib2 2026-05-01 18:18 2.0M
20260501T12Z_MSC_CAPS_RelativeHumidity_IsbL-0500_RLatLon0.03_PT017H.grib2 2026-05-01 18:18 1.9M
20260501T12Z_MSC_CAPS_RelativeHumidity_IsbL-0550_RLatLon0.03_PT017H.grib2 2026-05-01 18:18 2.1M
20260501T12Z_MSC_CAPS_RelativeHumidity_IsbL-0600_RLatLon0.03_PT017H.grib2 2026-05-01 18:18 2.1M
20260501T12Z_MSC_CAPS_RelativeHumidity_IsbL-0650_RLatLon0.03_PT017H.grib2 2026-05-01 18:18 2.2M
20260501T12Z_MSC_CAPS_RelativeHumidity_IsbL-0700_RLatLon0.03_PT017H.grib2 2026-05-01 18:18 2.3M
20260501T12Z_MSC_CAPS_RelativeHumidity_IsbL-0750_RLatLon0.03_PT017H.grib2 2026-05-01 18:18 2.3M
20260501T12Z_MSC_CAPS_RelativeHumidity_IsbL-0800_RLatLon0.03_PT017H.grib2 2026-05-01 18:18 2.3M
20260501T12Z_MSC_CAPS_RelativeHumidity_IsbL-0850_RLatLon0.03_PT017H.grib2 2026-05-01 18:18 2.4M
20260501T12Z_MSC_CAPS_RelativeHumidity_IsbL-0875_RLatLon0.03_PT017H.grib2 2026-05-01 18:18 2.5M
20260501T12Z_MSC_CAPS_RelativeHumidity_IsbL-0900_RLatLon0.03_PT017H.grib2 2026-05-01 18:18 2.6M
20260501T12Z_MSC_CAPS_RelativeHumidity_IsbL-0925_RLatLon0.03_PT017H.grib2 2026-05-01 18:18 2.6M
20260501T12Z_MSC_CAPS_RelativeHumidity_IsbL-0950_RLatLon0.03_PT017H.grib2 2026-05-01 18:18 2.6M
20260501T12Z_MSC_CAPS_RelativeHumidity_IsbL-0970_RLatLon0.03_PT017H.grib2 2026-05-01 18:18 2.7M
20260501T12Z_MSC_CAPS_RelativeHumidity_IsbL-0985_RLatLon0.03_PT017H.grib2 2026-05-01 18:18 2.7M
20260501T12Z_MSC_CAPS_RelativeHumidity_IsbL-1000_RLatLon0.03_PT017H.grib2 2026-05-01 18:18 2.8M
20260501T12Z_MSC_CAPS_RelativeHumidity_IsbL-1015_RLatLon0.03_PT017H.grib2 2026-05-01 18:18 2.8M
20260501T12Z_MSC_CAPS_Runoff-Accum_Sfc_RLatLon0.03_PT017H.grib2 2026-05-01 18:18 367K
20260501T12Z_MSC_CAPS_SeaIceAreaFraction_Sfc_RLatLon0.03_PT017H.nc 2026-05-01 18:14 15M
20260501T12Z_MSC_CAPS_SeaIceCompressiveStrength_Sfc_RLatLon0.03_PT017H.nc 2026-05-01 18:14 15M
20260501T12Z_MSC_CAPS_SeaIceDivergence_Sfc_RLatLon0.03_PT017H.nc 2026-05-01 18:14 15M
20260501T12Z_MSC_CAPS_SeaIceInternalPressure_Sfc_RLatLon0.03_PT017H.nc 2026-05-01 18:14 15M
20260501T12Z_MSC_CAPS_SeaIceShear_Sfc_RLatLon0.03_PT017H.nc 2026-05-01 18:14 14M
20260501T12Z_MSC_CAPS_SeaIceSnowTemp_Sfc_RLatLon0.03_PT017H.nc 2026-05-01 18:14 15M
20260501T12Z_MSC_CAPS_SeaIceSnowVolume_Sfc_RLatLon0.03_PT017H.nc 2026-05-01 18:14 15M
20260501T12Z_MSC_CAPS_SeaIceVelocityX_Sfc_RLatLon0.03_PT017H.nc 2026-05-01 18:14 15M
20260501T12Z_MSC_CAPS_SeaIceVelocityY_Sfc_RLatLon0.03_PT017H.nc 2026-05-01 18:14 15M
20260501T12Z_MSC_CAPS_SeaIceVolume_Sfc_RLatLon0.03_PT017H.nc 2026-05-01 18:14 15M
20260501T12Z_MSC_CAPS_SeaSurfaceHeight_Sfc_RLatLon0.03_PT017H.nc 2026-05-01 18:14 16M
20260501T12Z_MSC_CAPS_SeaWaterSalinity_DBS-0.5m_RLatLon0.03_PT017H.nc 2026-05-01 18:14 16M
20260501T12Z_MSC_CAPS_SeaWaterSalinity_DBS-all_RLatLon0.03_PT017H.nc 2026-05-01 18:14 107M
20260501T12Z_MSC_CAPS_SeaWaterTemp_DBS-0.5m_RLatLon0.03_PT017H.nc 2026-05-01 18:14 14M
20260501T12Z_MSC_CAPS_SeaWaterTemp_DBS-all_RLatLon0.03_PT017H.nc 2026-05-01 18:14 87M
20260501T12Z_MSC_CAPS_SeaWaterVelocityX_DBS-0.5m_RLatLon0.03_PT017H.nc 2026-05-01 18:14 17M
20260501T12Z_MSC_CAPS_SeaWaterVelocityX_DBS-all_RLatLon0.03_PT017H.nc 2026-05-01 18:14 201M
20260501T12Z_MSC_CAPS_SeaWaterVelocityY_DBS-0.5m_RLatLon0.03_PT017H.nc 2026-05-01 18:14 17M
20260501T12Z_MSC_CAPS_SeaWaterVelocityY_DBS-all_RLatLon0.03_PT017H.nc 2026-05-01 18:14 206M
20260501T12Z_MSC_CAPS_SensibleHeatNetFlux_Sfc_RLatLon0.03_PT017H.grib2 2026-05-01 18:18 2.1M
20260501T12Z_MSC_CAPS_ShowalterIndex_IsbL-0500_RLatLon0.03_PT017H.grib2 2026-05-01 18:18 4.3M
20260501T12Z_MSC_CAPS_Snow-Accum_Sfc_RLatLon0.03_PT017H.grib2 2026-05-01 18:18 2.9M
20260501T12Z_MSC_CAPS_SnowDensity_Sfc_RLatLon0.03_PT017H.grib2 2026-05-01 18:18 1.2M
20260501T12Z_MSC_CAPS_SnowDepthWaterEquivalent_Sfc_RLatLon0.03_PT017H.grib2 2026-05-01 18:18 683K
20260501T12Z_MSC_CAPS_SnowDepth_Sfc_RLatLon0.03_PT017H.grib2 2026-05-01 18:18 1.2M
20260501T12Z_MSC_CAPS_SoilTemp_DBS-0to10cm_RLatLon0.03_PT017H.grib2 2026-05-01 18:18 1.6M
20260501T12Z_MSC_CAPS_SoilTemp_Sfc_RLatLon0.03_PT017H.grib2 2026-05-01 18:18 1.8M
20260501T12Z_MSC_CAPS_SoilVolumetricIceContent_Sfc_RLatLon0.03_PT017H.grib2 2026-05-01 18:18 1.4M
20260501T12Z_MSC_CAPS_SoilVolumetricWaterContent_DBS-0to10cm_RLatLon0.03_PT017H.grib2 2026-05-01 18:18 1.2M
20260501T12Z_MSC_CAPS_SoilVolumetricWaterContent_DBS-0to1cm_RLatLon0.03_PT017H.grib2 2026-05-01 18:18 1.7M
20260501T12Z_MSC_CAPS_SpecificHumidity_AGL-120m_RLatLon0.03_PT017H.grib2 2026-05-01 18:18 1.7M
20260501T12Z_MSC_CAPS_SpecificHumidity_AGL-2m_RLatLon0.03_PT017H.grib2 2026-05-01 18:18 2.0M
20260501T12Z_MSC_CAPS_SpecificHumidity_AGL-40m_RLatLon0.03_PT017H.grib2 2026-05-01 18:18 1.8M
20260501T12Z_MSC_CAPS_SpecificHumidity_AGL-80m_RLatLon0.03_PT017H.grib2 2026-05-01 18:18 1.7M
20260501T12Z_MSC_CAPS_SpecificHumidity_IsbL-0050_RLatLon0.03_PT017H.grib2 2026-05-01 18:18 881K
20260501T12Z_MSC_CAPS_SpecificHumidity_IsbL-0100_RLatLon0.03_PT017H.grib2 2026-05-01 18:18 972K
20260501T12Z_MSC_CAPS_SpecificHumidity_IsbL-0150_RLatLon0.03_PT017H.grib2 2026-05-01 18:18 762K
20260501T12Z_MSC_CAPS_SpecificHumidity_IsbL-0175_RLatLon0.03_PT017H.grib2 2026-05-01 18:18 744K
20260501T12Z_MSC_CAPS_SpecificHumidity_IsbL-0200_RLatLon0.03_PT017H.grib2 2026-05-01 18:18 1.0M
20260501T12Z_MSC_CAPS_SpecificHumidity_IsbL-0225_RLatLon0.03_PT017H.grib2 2026-05-01 18:18 923K
20260501T12Z_MSC_CAPS_SpecificHumidity_IsbL-0250_RLatLon0.03_PT017H.grib2 2026-05-01 18:18 837K
20260501T12Z_MSC_CAPS_SpecificHumidity_IsbL-0275_RLatLon0.03_PT017H.grib2 2026-05-01 18:18 1.1M
20260501T12Z_MSC_CAPS_SpecificHumidity_IsbL-0300_RLatLon0.03_PT017H.grib2 2026-05-01 18:18 1.0M
20260501T12Z_MSC_CAPS_SpecificHumidity_IsbL-0350_RLatLon0.03_PT017H.grib2 2026-05-01 18:18 960K
20260501T12Z_MSC_CAPS_SpecificHumidity_IsbL-0400_RLatLon0.03_PT017H.grib2 2026-05-01 18:18 1.3M
20260501T12Z_MSC_CAPS_SpecificHumidity_IsbL-0450_RLatLon0.03_PT017H.grib2 2026-05-01 18:18 1.1M
20260501T12Z_MSC_CAPS_SpecificHumidity_IsbL-0500_RLatLon0.03_PT017H.grib2 2026-05-01 18:18 1.3M
20260501T12Z_MSC_CAPS_SpecificHumidity_IsbL-0550_RLatLon0.03_PT017H.grib2 2026-05-01 18:18 1.2M
20260501T12Z_MSC_CAPS_SpecificHumidity_IsbL-0600_RLatLon0.03_PT017H.grib2 2026-05-01 18:18 1.3M
20260501T12Z_MSC_CAPS_SpecificHumidity_IsbL-0650_RLatLon0.03_PT017H.grib2 2026-05-01 18:18 1.5M
20260501T12Z_MSC_CAPS_SpecificHumidity_IsbL-0700_RLatLon0.03_PT017H.grib2 2026-05-01 18:18 1.2M
20260501T12Z_MSC_CAPS_SpecificHumidity_IsbL-0750_RLatLon0.03_PT017H.grib2 2026-05-01 18:18 1.3M
20260501T12Z_MSC_CAPS_SpecificHumidity_IsbL-0800_RLatLon0.03_PT017H.grib2 2026-05-01 18:18 1.5M
20260501T12Z_MSC_CAPS_SpecificHumidity_IsbL-0850_RLatLon0.03_PT017H.grib2 2026-05-01 18:18 1.6M
20260501T12Z_MSC_CAPS_SpecificHumidity_IsbL-0875_RLatLon0.03_PT017H.grib2 2026-05-01 18:18 1.7M
20260501T12Z_MSC_CAPS_SpecificHumidity_IsbL-0900_RLatLon0.03_PT017H.grib2 2026-05-01 18:18 1.8M
20260501T12Z_MSC_CAPS_SpecificHumidity_IsbL-0925_RLatLon0.03_PT017H.grib2 2026-05-01 18:18 1.8M
20260501T12Z_MSC_CAPS_SpecificHumidity_IsbL-0950_RLatLon0.03_PT017H.grib2 2026-05-01 18:18 1.9M
20260501T12Z_MSC_CAPS_SpecificHumidity_IsbL-0970_RLatLon0.03_PT017H.grib2 2026-05-01 18:18 2.0M
20260501T12Z_MSC_CAPS_SpecificHumidity_IsbL-0985_RLatLon0.03_PT017H.grib2 2026-05-01 18:18 2.0M
20260501T12Z_MSC_CAPS_SpecificHumidity_IsbL-1000_RLatLon0.03_PT017H.grib2 2026-05-01 18:18 2.0M
20260501T12Z_MSC_CAPS_SpecificHumidity_IsbL-1015_RLatLon0.03_PT017H.grib2 2026-05-01 18:18 2.0M
20260501T12Z_MSC_CAPS_SpecificHumidity_Sfc_RLatLon0.03_PT017H.grib2 2026-05-01 18:18 2.5M
20260501T12Z_MSC_CAPS_StormRelativeHelicity_Sfc_RLatLon0.03_PT017H.grib2 2026-05-01 18:18 2.7M
20260501T12Z_MSC_CAPS_Thickness_IsbL-1000to0500_RLatLon0.03_PT017H.grib2 2026-05-01 18:18 466K
20260501T12Z_MSC_CAPS_TotalCloudCover_Sfc_RLatLon0.03_PT017H.grib2 2026-05-01 18:18 3.4M
20260501T12Z_MSC_CAPS_TurboclineDepth_Sfc_RLatLon0.03_PT017H.nc 2026-05-01 18:14 16M
20260501T12Z_MSC_CAPS_UpwardLongwaveRadiationFlux_NTAtm_RLatLon0.03_PT017H.grib2 2026-05-01 18:18 2.8M
20260501T12Z_MSC_CAPS_UpwardShortwaveRadiationFlux_NTAtm_RLatLon0.03_PT017H.grib2 2026-05-01 18:18 1.7M
20260501T12Z_MSC_CAPS_VerticalVelocity_IsbL-0250_RLatLon0.03_PT017H.grib2 2026-05-01 18:18 904K
20260501T12Z_MSC_CAPS_VerticalVelocity_IsbL-0500_RLatLon0.03_PT017H.grib2 2026-05-01 18:18 877K
20260501T12Z_MSC_CAPS_VerticalVelocity_IsbL-0700_RLatLon0.03_PT017H.grib2 2026-05-01 18:18 943K
20260501T12Z_MSC_CAPS_VerticalVelocity_IsbL-0850_RLatLon0.03_PT017H.grib2 2026-05-01 18:18 1.1M
20260501T12Z_MSC_CAPS_VerticalVelocity_IsbL-1000_RLatLon0.03_PT017H.grib2 2026-05-01 18:18 1.4M
20260501T12Z_MSC_CAPS_WindDir_AGL-10m_RLatLon0.03_PT017H.grib2 2026-05-01 18:18 2.3M
20260501T12Z_MSC_CAPS_WindDir_AGL-120m_RLatLon0.03_PT017H.grib2 2026-05-01 18:18 1.2M
20260501T12Z_MSC_CAPS_WindDir_AGL-40m_RLatLon0.03_PT017H.grib2 2026-05-01 18:18 1.3M
20260501T12Z_MSC_CAPS_WindDir_AGL-80m_RLatLon0.03_PT017H.grib2 2026-05-01 18:18 1.2M
20260501T12Z_MSC_CAPS_WindDir_IsbL-0050_RLatLon0.03_PT017H.grib2 2026-05-01 18:18 1.0M
20260501T12Z_MSC_CAPS_WindDir_IsbL-0100_RLatLon0.03_PT017H.grib2 2026-05-01 18:18 1.1M
20260501T12Z_MSC_CAPS_WindDir_IsbL-0150_RLatLon0.03_PT017H.grib2 2026-05-01 18:18 1.0M
20260501T12Z_MSC_CAPS_WindDir_IsbL-0175_RLatLon0.03_PT017H.grib2 2026-05-01 18:18 1.1M
20260501T12Z_MSC_CAPS_WindDir_IsbL-0200_RLatLon0.03_PT017H.grib2 2026-05-01 18:18 1.1M
20260501T12Z_MSC_CAPS_WindDir_IsbL-0225_RLatLon0.03_PT017H.grib2 2026-05-01 18:18 1.1M
20260501T12Z_MSC_CAPS_WindDir_IsbL-0250_RLatLon0.03_PT017H.grib2 2026-05-01 18:18 1.1M
20260501T12Z_MSC_CAPS_WindDir_IsbL-0275_RLatLon0.03_PT017H.grib2 2026-05-01 18:18 1.1M
20260501T12Z_MSC_CAPS_WindDir_IsbL-0300_RLatLon0.03_PT017H.grib2 2026-05-01 18:18 1.1M
20260501T12Z_MSC_CAPS_WindDir_IsbL-0350_RLatLon0.03_PT017H.grib2 2026-05-01 18:18 1.1M
20260501T12Z_MSC_CAPS_WindDir_IsbL-0400_RLatLon0.03_PT017H.grib2 2026-05-01 18:18 1.1M
20260501T12Z_MSC_CAPS_WindDir_IsbL-0450_RLatLon0.03_PT017H.grib2 2026-05-01 18:18 1.2M
20260501T12Z_MSC_CAPS_WindDir_IsbL-0500_RLatLon0.03_PT017H.grib2 2026-05-01 18:18 1.2M
20260501T12Z_MSC_CAPS_WindDir_IsbL-0550_RLatLon0.03_PT017H.grib2 2026-05-01 18:18 1.2M
20260501T12Z_MSC_CAPS_WindDir_IsbL-0600_RLatLon0.03_PT017H.grib2 2026-05-01 18:18 1.3M
20260501T12Z_MSC_CAPS_WindDir_IsbL-0650_RLatLon0.03_PT017H.grib2 2026-05-01 18:18 1.3M
20260501T12Z_MSC_CAPS_WindDir_IsbL-0700_RLatLon0.03_PT017H.grib2 2026-05-01 18:18 1.4M
20260501T12Z_MSC_CAPS_WindDir_IsbL-0750_RLatLon0.03_PT017H.grib2 2026-05-01 18:18 1.5M
20260501T12Z_MSC_CAPS_WindDir_IsbL-0800_RLatLon0.03_PT017H.grib2 2026-05-01 18:18 1.6M
20260501T12Z_MSC_CAPS_WindDir_IsbL-0850_RLatLon0.03_PT017H.grib2 2026-05-01 18:18 1.7M
20260501T12Z_MSC_CAPS_WindDir_IsbL-0875_RLatLon0.03_PT017H.grib2 2026-05-01 18:18 1.8M
20260501T12Z_MSC_CAPS_WindDir_IsbL-0900_RLatLon0.03_PT017H.grib2 2026-05-01 18:18 1.8M
20260501T12Z_MSC_CAPS_WindDir_IsbL-0925_RLatLon0.03_PT017H.grib2 2026-05-01 18:18 1.9M
20260501T12Z_MSC_CAPS_WindDir_IsbL-0950_RLatLon0.03_PT017H.grib2 2026-05-01 18:18 2.0M
20260501T12Z_MSC_CAPS_WindDir_IsbL-0970_RLatLon0.03_PT017H.grib2 2026-05-01 18:18 2.0M
20260501T12Z_MSC_CAPS_WindDir_IsbL-0985_RLatLon0.03_PT017H.grib2 2026-05-01 18:18 2.1M
20260501T12Z_MSC_CAPS_WindDir_IsbL-1000_RLatLon0.03_PT017H.grib2 2026-05-01 18:18 2.2M
20260501T12Z_MSC_CAPS_WindDir_IsbL-1015_RLatLon0.03_PT017H.grib2 2026-05-01 18:18 2.3M
20260501T12Z_MSC_CAPS_WindGust-Max_AGL-10m_RLatLon0.03_PT017H.grib2 2026-05-01 18:18 2.5M
20260501T12Z_MSC_CAPS_WindGust-Min_AGL-10m_RLatLon0.03_PT017H.grib2 2026-05-01 18:18 2.3M
20260501T12Z_MSC_CAPS_WindGust_AGL-10m_RLatLon0.03_PT017H.grib2 2026-05-01 18:18 2.4M
20260501T12Z_MSC_CAPS_WindSpeed_AGL-10m_RLatLon0.03_PT017H.grib2 2026-05-01 18:18 2.1M
20260501T12Z_MSC_CAPS_WindSpeed_AGL-120m_RLatLon0.03_PT017H.grib2 2026-05-01 18:18 1.2M
20260501T12Z_MSC_CAPS_WindSpeed_AGL-40m_RLatLon0.03_PT017H.grib2 2026-05-01 18:18 1.2M
20260501T12Z_MSC_CAPS_WindSpeed_AGL-80m_RLatLon0.03_PT017H.grib2 2026-05-01 18:18 1.1M
20260501T12Z_MSC_CAPS_WindSpeed_IsbL-0050_RLatLon0.03_PT017H.grib2 2026-05-01 18:18 1.0M
20260501T12Z_MSC_CAPS_WindSpeed_IsbL-0100_RLatLon0.03_PT017H.grib2 2026-05-01 18:18 1.0M
20260501T12Z_MSC_CAPS_WindSpeed_IsbL-0150_RLatLon0.03_PT017H.grib2 2026-05-01 18:18 1.0M
20260501T12Z_MSC_CAPS_WindSpeed_IsbL-0175_RLatLon0.03_PT017H.grib2 2026-05-01 18:18 927K
20260501T12Z_MSC_CAPS_WindSpeed_IsbL-0200_RLatLon0.03_PT017H.grib2 2026-05-01 18:18 941K
20260501T12Z_MSC_CAPS_WindSpeed_IsbL-0225_RLatLon0.03_PT017H.grib2 2026-05-01 18:18 1.0M
20260501T12Z_MSC_CAPS_WindSpeed_IsbL-0250_RLatLon0.03_PT017H.grib2 2026-05-01 18:18 1.0M
20260501T12Z_MSC_CAPS_WindSpeed_IsbL-0275_RLatLon0.03_PT017H.grib2 2026-05-01 18:18 1.0M
20260501T12Z_MSC_CAPS_WindSpeed_IsbL-0300_RLatLon0.03_PT017H.grib2 2026-05-01 18:18 1.0M
20260501T12Z_MSC_CAPS_WindSpeed_IsbL-0350_RLatLon0.03_PT017H.grib2 2026-05-01 18:18 1.0M
20260501T12Z_MSC_CAPS_WindSpeed_IsbL-0400_RLatLon0.03_PT017H.grib2 2026-05-01 18:18 1.0M
20260501T12Z_MSC_CAPS_WindSpeed_IsbL-0450_RLatLon0.03_PT017H.grib2 2026-05-01 18:18 1.0M
20260501T12Z_MSC_CAPS_WindSpeed_IsbL-0500_RLatLon0.03_PT017H.grib2 2026-05-01 18:18 1.4M
20260501T12Z_MSC_CAPS_WindSpeed_IsbL-0550_RLatLon0.03_PT017H.grib2 2026-05-01 18:18 1.4M
20260501T12Z_MSC_CAPS_WindSpeed_IsbL-0600_RLatLon0.03_PT017H.grib2 2026-05-01 18:18 1.5M
20260501T12Z_MSC_CAPS_WindSpeed_IsbL-0650_RLatLon0.03_PT017H.grib2 2026-05-01 18:18 1.4M
20260501T12Z_MSC_CAPS_WindSpeed_IsbL-0700_RLatLon0.03_PT017H.grib2 2026-05-01 18:18 1.5M
20260501T12Z_MSC_CAPS_WindSpeed_IsbL-0750_RLatLon0.03_PT017H.grib2 2026-05-01 18:18 1.6M
20260501T12Z_MSC_CAPS_WindSpeed_IsbL-0800_RLatLon0.03_PT017H.grib2 2026-05-01 18:18 1.6M
20260501T12Z_MSC_CAPS_WindSpeed_IsbL-0850_RLatLon0.03_PT017H.grib2 2026-05-01 18:18 1.7M
20260501T12Z_MSC_CAPS_WindSpeed_IsbL-0875_RLatLon0.03_PT017H.grib2 2026-05-01 18:18 1.7M
20260501T12Z_MSC_CAPS_WindSpeed_IsbL-0900_RLatLon0.03_PT017H.grib2 2026-05-01 18:18 1.8M
20260501T12Z_MSC_CAPS_WindSpeed_IsbL-0925_RLatLon0.03_PT017H.grib2 2026-05-01 18:18 1.8M
20260501T12Z_MSC_CAPS_WindSpeed_IsbL-0950_RLatLon0.03_PT017H.grib2 2026-05-01 18:18 1.9M
20260501T12Z_MSC_CAPS_WindSpeed_IsbL-0970_RLatLon0.03_PT017H.grib2 2026-05-01 18:18 1.9M
20260501T12Z_MSC_CAPS_WindSpeed_IsbL-0985_RLatLon0.03_PT017H.grib2 2026-05-01 18:18 2.0M
20260501T12Z_MSC_CAPS_WindSpeed_IsbL-1000_RLatLon0.03_PT017H.grib2 2026-05-01 18:18 2.0M
20260501T12Z_MSC_CAPS_WindSpeed_IsbL-1015_RLatLon0.03_PT017H.grib2 2026-05-01 18:18 2.0M
20260501T12Z_MSC_CAPS_WindU_AGL-10m_RLatLon0.03_PT017H.grib2 2026-05-01 18:18 2.0M
20260501T12Z_MSC_CAPS_WindU_AGL-120m_RLatLon0.03_PT017H.grib2 2026-05-01 18:18 891K
20260501T12Z_MSC_CAPS_WindU_AGL-40m_RLatLon0.03_PT017H.grib2 2026-05-01 18:18 1.2M
20260501T12Z_MSC_CAPS_WindU_AGL-80m_RLatLon0.03_PT017H.grib2 2026-05-01 18:18 1.2M
20260501T12Z_MSC_CAPS_WindU_IsbL-0050_RLatLon0.03_PT017H.grib2 2026-05-01 18:18 939K
20260501T12Z_MSC_CAPS_WindU_IsbL-0100_RLatLon0.03_PT017H.grib2 2026-05-01 18:18 1.0M
20260501T12Z_MSC_CAPS_WindU_IsbL-0150_RLatLon0.03_PT017H.grib2 2026-05-01 18:18 721K
20260501T12Z_MSC_CAPS_WindU_IsbL-0175_RLatLon0.03_PT017H.grib2 2026-05-01 18:18 856K
20260501T12Z_MSC_CAPS_WindU_IsbL-0200_RLatLon0.03_PT017H.grib2 2026-05-01 18:18 874K
20260501T12Z_MSC_CAPS_WindU_IsbL-0225_RLatLon0.03_PT017H.grib2 2026-05-01 18:18 679K
20260501T12Z_MSC_CAPS_WindU_IsbL-0250_RLatLon0.03_PT017H.grib2 2026-05-01 18:18 696K
20260501T12Z_MSC_CAPS_WindU_IsbL-0275_RLatLon0.03_PT017H.grib2 2026-05-01 18:18 703K
20260501T12Z_MSC_CAPS_WindU_IsbL-0300_RLatLon0.03_PT017H.grib2 2026-05-01 18:18 710K
20260501T12Z_MSC_CAPS_WindU_IsbL-0350_RLatLon0.03_PT017H.grib2 2026-05-01 18:18 722K
20260501T12Z_MSC_CAPS_WindU_IsbL-0400_RLatLon0.03_PT017H.grib2 2026-05-01 18:18 939K
20260501T12Z_MSC_CAPS_WindU_IsbL-0450_RLatLon0.03_PT017H.grib2 2026-05-01 18:18 955K
20260501T12Z_MSC_CAPS_WindU_IsbL-0500_RLatLon0.03_PT017H.grib2 2026-05-01 18:18 1.0M
20260501T12Z_MSC_CAPS_WindU_IsbL-0550_RLatLon0.03_PT017H.grib2 2026-05-01 18:18 1.0M
20260501T12Z_MSC_CAPS_WindU_IsbL-0600_RLatLon0.03_PT017H.grib2 2026-05-01 18:18 1.0M
20260501T12Z_MSC_CAPS_WindU_IsbL-0650_RLatLon0.03_PT017H.grib2 2026-05-01 18:18 963K
20260501T12Z_MSC_CAPS_WindU_IsbL-0700_RLatLon0.03_PT017H.grib2 2026-05-01 18:18 1.0M
20260501T12Z_MSC_CAPS_WindU_IsbL-0750_RLatLon0.03_PT017H.grib2 2026-05-01 18:18 1.0M
20260501T12Z_MSC_CAPS_WindU_IsbL-0800_RLatLon0.03_PT017H.grib2 2026-05-01 18:18 1.1M
20260501T12Z_MSC_CAPS_WindU_IsbL-0850_RLatLon0.03_PT017H.grib2 2026-05-01 18:18 1.2M
20260501T12Z_MSC_CAPS_WindU_IsbL-0875_RLatLon0.03_PT017H.grib2 2026-05-01 18:18 1.2M
20260501T12Z_MSC_CAPS_WindU_IsbL-0900_RLatLon0.03_PT017H.grib2 2026-05-01 18:18 1.2M
20260501T12Z_MSC_CAPS_WindU_IsbL-0925_RLatLon0.03_PT017H.grib2 2026-05-01 18:18 1.3M
20260501T12Z_MSC_CAPS_WindU_IsbL-0950_RLatLon0.03_PT017H.grib2 2026-05-01 18:18 1.3M
20260501T12Z_MSC_CAPS_WindU_IsbL-0970_RLatLon0.03_PT017H.grib2 2026-05-01 18:18 1.4M
20260501T12Z_MSC_CAPS_WindU_IsbL-0985_RLatLon0.03_PT017H.grib2 2026-05-01 18:18 1.4M
20260501T12Z_MSC_CAPS_WindU_IsbL-1000_RLatLon0.03_PT017H.grib2 2026-05-01 18:18 1.8M
20260501T12Z_MSC_CAPS_WindU_IsbL-1015_RLatLon0.03_PT017H.grib2 2026-05-01 18:18 2.0M
20260501T12Z_MSC_CAPS_WindV_AGL-10m_RLatLon0.03_PT017H.grib2 2026-05-01 18:18 2.0M
20260501T12Z_MSC_CAPS_WindV_AGL-120m_RLatLon0.03_PT017H.grib2 2026-05-01 18:18 1.2M
20260501T12Z_MSC_CAPS_WindV_AGL-40m_RLatLon0.03_PT017H.grib2 2026-05-01 18:18 1.2M
20260501T12Z_MSC_CAPS_WindV_AGL-80m_RLatLon0.03_PT017H.grib2 2026-05-01 18:18 1.2M
20260501T12Z_MSC_CAPS_WindV_IsbL-0050_RLatLon0.03_PT017H.grib2 2026-05-01 18:18 936K
20260501T12Z_MSC_CAPS_WindV_IsbL-0100_RLatLon0.03_PT017H.grib2 2026-05-01 18:18 1.0M
20260501T12Z_MSC_CAPS_WindV_IsbL-0150_RLatLon0.03_PT017H.grib2 2026-05-01 18:18 725K
20260501T12Z_MSC_CAPS_WindV_IsbL-0175_RLatLon0.03_PT017H.grib2 2026-05-01 18:18 860K
20260501T12Z_MSC_CAPS_WindV_IsbL-0200_RLatLon0.03_PT017H.grib2 2026-05-01 18:18 876K
20260501T12Z_MSC_CAPS_WindV_IsbL-0225_RLatLon0.03_PT017H.grib2 2026-05-01 18:18 892K
20260501T12Z_MSC_CAPS_WindV_IsbL-0250_RLatLon0.03_PT017H.grib2 2026-05-01 18:18 911K
20260501T12Z_MSC_CAPS_WindV_IsbL-0275_RLatLon0.03_PT017H.grib2 2026-05-01 18:18 704K
20260501T12Z_MSC_CAPS_WindV_IsbL-0300_RLatLon0.03_PT017H.grib2 2026-05-01 18:18 711K
20260501T12Z_MSC_CAPS_WindV_IsbL-0350_RLatLon0.03_PT017H.grib2 2026-05-01 18:18 935K
20260501T12Z_MSC_CAPS_WindV_IsbL-0400_RLatLon0.03_PT017H.grib2 2026-05-01 18:18 942K
20260501T12Z_MSC_CAPS_WindV_IsbL-0450_RLatLon0.03_PT017H.grib2 2026-05-01 18:18 959K
20260501T12Z_MSC_CAPS_WindV_IsbL-0500_RLatLon0.03_PT017H.grib2 2026-05-01 18:18 1.0M
20260501T12Z_MSC_CAPS_WindV_IsbL-0550_RLatLon0.03_PT017H.grib2 2026-05-01 18:18 898K
20260501T12Z_MSC_CAPS_WindV_IsbL-0600_RLatLon0.03_PT017H.grib2 2026-05-01 18:18 928K
20260501T12Z_MSC_CAPS_WindV_IsbL-0650_RLatLon0.03_PT017H.grib2 2026-05-01 18:18 961K
20260501T12Z_MSC_CAPS_WindV_IsbL-0700_RLatLon0.03_PT017H.grib2 2026-05-01 18:18 1.3M
20260501T12Z_MSC_CAPS_WindV_IsbL-0750_RLatLon0.03_PT017H.grib2 2026-05-01 18:18 1.0M
20260501T12Z_MSC_CAPS_WindV_IsbL-0800_RLatLon0.03_PT017H.grib2 2026-05-01 18:18 1.1M
20260501T12Z_MSC_CAPS_WindV_IsbL-0850_RLatLon0.03_PT017H.grib2 2026-05-01 18:18 1.2M
20260501T12Z_MSC_CAPS_WindV_IsbL-0875_RLatLon0.03_PT017H.grib2 2026-05-01 18:18 1.2M
20260501T12Z_MSC_CAPS_WindV_IsbL-0900_RLatLon0.03_PT017H.grib2 2026-05-01 18:18 1.2M
20260501T12Z_MSC_CAPS_WindV_IsbL-0925_RLatLon0.03_PT017H.grib2 2026-05-01 18:18 1.3M
20260501T12Z_MSC_CAPS_WindV_IsbL-0950_RLatLon0.03_PT017H.grib2 2026-05-01 18:18 1.3M
20260501T12Z_MSC_CAPS_WindV_IsbL-0970_RLatLon0.03_PT017H.grib2 2026-05-01 18:18 1.7M
20260501T12Z_MSC_CAPS_WindV_IsbL-0985_RLatLon0.03_PT017H.grib2 2026-05-01 18:18 1.8M
20260501T12Z_MSC_CAPS_WindV_IsbL-1000_RLatLon0.03_PT017H.grib2 2026-05-01 18:18 1.8M
20260501T12Z_MSC_CAPS_WindV_IsbL-1015_RLatLon0.03_PT017H.grib2 2026-05-01 18:18 2.0M